This is the latest recevied weather packets stored in our database for station/object W3JBS-2. If no packets are shown the sender has not sent any weather packets the latest 10 day(s).
| Time | Temp. | Humidity | Pressure | Rain* | Wind** | Luminosity | Snow |
|---|---|---|---|---|---|---|---|
| 1777540016 | 8.89° C | 88% | 1006.7 hPa | 0 mm | - | 1744 W/m² | - |
| 1777539116 | 8.89° C | 88% | 1006.8 hPa | 0 mm | - | 1746 W/m² | - |
| 1777538216 | 8.89° C | 88% | 1006.6 hPa | 0 mm | - | 1746 W/m² | - |
| 1777537316 | 8.89° C | 88% | 1006.6 hPa | 0.25 mm | - | 1747 W/m² | - |
| 1777536416 | 8.89° C | 88% | 1006.5 hPa | 0.25 mm | - | 1747 W/m² | - |
| 1777535516 | 8.89° C | 88% | 1006.5 hPa | 0.25 mm | - | 1749 W/m² | - |
| 1777534616 | 8.89° C | 88% | 1006.7 hPa | 0.25 mm | - | 1749 W/m² | - |
| 1777533716 | 8.89° C | 88% | 1006.7 hPa | 0 mm | - | 1751 W/m² | - |
| 1777532816 | 8.89° C | 88% | 1006.7 hPa | 0 mm | - | 1751 W/m² | - |
| 1777531916 | 8.89° C | 87% | 1007 hPa | 0 mm | - | 1753 W/m² | - |
| 1777531016 | 8.89° C | 87% | 1007.3 hPa | 0 mm | - | 1753 W/m² | - |
| 1777530115 | 8.89° C | 87% | 1007.4 hPa | 0 mm | - | 1754 W/m² | - |
| 1777529216 | 8.89° C | 87% | 1007.4 hPa | 0 mm | - | 1754 W/m² | - |
| 1777528316 | 8.89° C | 87% | 1007.8 hPa | 0 mm | - | 1756 W/m² | - |
| 1777527416 | 8.33° C | 87% | 1007.9 hPa | 0 mm | - | 1756 W/m² | - |
| 1777526516 | 8.89° C | 87% | 1008 hPa | 0 mm | - | 1758 W/m² | - |
| 1777525615 | 8.89° C | 87% | 1008.1 hPa | 0 mm | - | 1758 W/m² | - |
| 1777524715 | 8.89° C | 86% | 1008.2 hPa | 1.02 mm | - | 1760 W/m² | - |
| 1777523816 | 8.89° C | 86% | 1008.3 hPa | 2.03 mm | - | 1761 W/m² | - |
| 1777522916 | 8.89° C | 86% | 1008.4 hPa | 2.03 mm | - | 1763 W/m² | - |
| 1777522015 | 8.89° C | 86% | 1009 hPa | 2.29 mm | - | 1763 W/m² | - |
| 1777521115 | 8.89° C | 86% | 1008.8 hPa | 2.79 mm | - | 1765 W/m² | - |
| 1777520215 | 8.89° C | 85% | 1008.4 hPa | 2.54 mm | - | 1765 W/m² | - |
| 1777519316 | 8.89° C | 85% | 1008.2 hPa | 4.57 mm | - | 1767 W/m² | - |
* Rain latest hour (hover to see other rain measurements)
** Current wind speed in m/s (hover to see current wind gust speed)